If you wish to contribute or participate in the discussions about articles you are invited to join SKYbrary as a registered user

 Actions

Toyama Airport

From SKYbrary Wiki

RJNT
Airport
ICAO: RJNT – IATA: TOY
Summary
Name Toyama Airport
Region Asia and Pacific
Territory Japan JP.gif
Location Toyama, Toyama Prefecture
Serving Toyama
Elevation 38.71 m
127 ft38.71 m
Coordinates 36° 38' 37.66" N, 137° 11' 22.23" E
Runways
Designator Length Width Surface ROPS
2/20 2000 m6,561.68 ft
46 m150.919 ft
ASP yes/yes


METAR
Observation RJNT 150200Z 32003KT 270V010 9999 FEW040 30/20 Q1009
Station Toyama Airport
Date/Time 15 September 2019 02:00:00
Wind direction 320°
Wind speed 03 kts
Lowest cloud amount few clouds
Temperature 30°C
Dew point 20°C
Humidity 55%
QNH 1009 hPa
Weather condition n/a

Toyama Airport is an airport located 3 nm5,556 m
5.556 km
18,228.346 ft
south southwest of Toyama City, Toyama Prefecture, Japan.

Climatology

Humid Sub-tropical climate (Köppen climate classification Cfa)

Maps

Terrain

Loading map...

Airport Layout

Loading map...


Accidents & Serious Incidents at or in vicinity of RJNT

None on SKYbrary